Regional Weather Roundup
Issued by NWS

Home | Current Version | Previous Version | Text Only | Print | Product List | Glossary Off
Versions: 1 2 3 4 5 6 7 8 9 10 11 12 13 14 15 16 17 18 19 20 21 22 23 24 25 26 27 28 29 30 31 32 33 34 35 36 37 38 39 40 41 42 43 44 45 46 47 48 49 50

000
ASUS43 KFSD 291502
RWRSD

WEATHER ROUNDUP FOR SOUTH DAKOTA
NATIONAL WEATHER SERVICE SIOUX FALLS SD
1000 AM CDT SAT AUG 29 2015

NOTE: "FAIR" INDICATES FEW OR NO CLOUDS BELOW 12,000 FEET WITH NO
SIGNIFICANT WEATHER AND/OR OBSTRUCTIONS TO VISIBILITY.


SDZ001>005-009-010-012>017-291600-
NORTHWEST AND NORTH CENTRAL SOUTH DAKOTA

CITY           SKY/WX    TMP DP  RH WIND       PRES   REMARKS
FAITH            N/A     71  58  63 SE5       30.01F
MOBRIDGE       SUNNY     70  67  90 S3        29.96S
$$

SDZ012>016-024>037-041>051-057-063-072>074-291600-
SOUTHWEST AND SOUTH CENTRAL SOUTH DAKOTA

CITY           SKY/WX    TMP DP  RH WIND       PRES   REMARKS
RAPID CTY ARPT SUNNY     66  57  72 CALM      30.06S
PIERRE         MOSUNNY   69  62  78 S5        30.00R
CUSTER         SUNNY     72  46  39 W6        30.23F
ELLSWORTH AFB  SUNNY     71  55  58 S3        30.05S
PHILIP         PTSUNNY   67  61  81 CALM      30.02S
PINE RIDGE     MOSUNNY   66  50  56 W3        30.12R
WINNER         FAIR      71  60  68 S8        30.05R
$$

SDZ004>011-016>023-039-040-291600-
NORTHEAST SOUTH DAKOTA

CITY           SKY/WX    TMP DP  RH WIND       PRES   REMARKS
ABERDEEN       MOSUNNY   66  62  87 S10       29.99S
WATERTOWN      SUNNY     64  60  87 S8        30.05S
BROOKINGS      SUNNY     61  57  88 SW5       30.08S
$$

SDZ017-020-022-023-036>040-048>070-291600-
SOUTHEAST SOUTH DAKOTA

CITY           SKY/WX    TMP DP  RH WIND       PRES   REMARKS
SIOUX FALLS    PTSUNNY   59  57  93 S5        30.07R
HURON          MOSUNNY   65  61  87 S8        30.02F
CHAMBERLAIN    PTSUNNY   67  65  94 CALM      30.04S
MITCHELL       SUNNY     67  62  84 S8        30.05F
YANKTON        CLOUDY    57  57 100 S6        30.07S
$$

ABBREVIATIONS USED IN REMARKS
   TC - TEMPERATURE IN CELSIUS
  WCI - WIND CHILL INDEX
   HX - HEAT INDEX
  VSB - VISIBILITY




USA.gov is the U.S. government's official web portal to all federal, state and local government web resources and services.